STARLINK-3090, 49132

Orbit data source: Space-Track

STARLINK-3090, 49132 is a payload satellite owned by SpaceX/Seattle (US) in LEO that was launched on Tue, 14 Sep 2021 UTC via an FALCON 9 launch vehicle from the Air Force Western Test Range (AFWTR). Payload-class satellites include a variety of spacecraft equipped with specific instruments for various scientific and technological missions. These include communications satellites like Starlink; space stations such as the ISS; scientific satellites like the Hubble; Earth observation satellites from companies like Planet Labs, Umbra, and HawkEye 360; GPS; miniature CubeSats for education and research; and military/defense satellites.

Loading next visibility...
Identifier
49132, 2021-082C
Orbit
LEO
Country
Flag of USUS
Related business
Manufacturer
SpaceX/Seattle
Mission
Operational Commercial Communications
Bus & Motor
STARLINK, Unknown motor
Mass
297 kg wet, ~275 kg dry
Launch date (UTC)
2021-09-14 (5 years ago)
Launch vehicle
FALCON 9
Launch site
Air Force Western Test Range (AFWTR)
Object type
Payload
Rocket body
Debris
Shape & HBR
Box + 1 Pan, 10.1 m
Radar Cross Section
13.562 m², Large (>1 m²)

Expand to show TLE details & history
Last TLE update: 16 hours ago

TLE from 16 hours ago
0 STARLINK-3090
1 49132U 21082C   26125.45157270 -.00002536  00000-0 -20481-3 0  9995
2 49132  69.9987 151.2129 0003879 269.1646  90.9069 14.98331163254486
Epoch: 2026-05-05T10:50Z
TLE epoch observation values (Epoch: 2026-05-05T10:50:15.881Z)
Latitude
0.00002°
Longitude
125.32051°
Altitude
574.52 km
Speed
7.574 km/s
True Right ascension
10h 04m 51s
True Declination
0° 00' 00"
Sunlit
Object was in daylight at epoch
Visualization orbit readout
Latitude
Unknown
Longitude
Unknown
Altitude
Unknown
Speed
Unknown
Apparent Right ascension
Unknown
Apparent Declination
Unknown
Sunlit
N/A
Visualization observer readout
Local Sidereal Time
10:39:27
Azimuth
Unknown
Elevation
Unknown
Doppler factor
Unknown
Orbital elements
Apogee altitude
572.696 km
Perigee altitude
567.305 km
Semi-major axis
6,948.138 km
Eccentricity
0.00039
Inclination
69.9987°
RAAN
151.2129°
Arg. of periapsis
269.1646°
True anomaly
90.95134°
Mean anomaly
90.9069°
Eccentric anomaly
90.92912°
Mean motion
3.74749 °/min
Orbital period
96.06 mins
BSTAR
-0.00020481
Loading maneuver chart data...
Computing Atmospheric mass density...

Documentation

Showing up to 5 results
|